GW2644 Weather Reports


Display with metric or nautical units.
time (UTC)temp
F
wind
direction
speed
MPH
gust
MPH
rain 1hr
in
rain 24hr
in
rain mn
in
humidity
%
barometer
mb
20260831225448 82 263 0.0 2.0 0.00 0.00 0.00 54 1016.1
20260831224943 83 237 0.0 4.0 0.00 0.00 0.00 55 1016.5
20260831224442 84 222 3.0 4.0 0.00 0.00 0.00 54 1016.4
20260831223937 84 216 2.0 3.0 0.00 0.00 0.00 55 1016.4
20260831223433 84 29 0.0 3.0 0.00 0.00 0.00 55 1016.4
20260831222930 84 238 0.0 3.0 0.00 0.00 0.00 56 1016.5
20260831222425 83 228 6.0 6.0 0.00 0.00 0.00 56 1016.7
20260831221920 84 220 0.0 3.0 0.00 0.00 0.00 53 1016.5
20260831221416 86 254 2.0 5.0 0.00 0.00 0.00 54 1016.7
20260831220911 84 120 2.0 6.0 0.00 0.00 0.00 55 1016.7
20260831220406 83 270 2.0 6.0 0.00 0.00 0.00 55 1016.7
20260831215901 83 191 0.0 4.0 0.00 0.00 0.00 56 1016.7
20260831215357 84 201 0.0 5.0 0.00 0.00 0.00 56 1016.8
20260831214853 83 270 1.0 2.0 0.00 0.00 0.00 57 1016.8
20260831214345 83 0 0.0 3.0 0.00 0.00 0.00 57 1016.7
20260831213845 83 231 0.0 3.0 0.00 0.00 0.00 58 1017.0
20260831213342 83 220 3.0 4.0 0.00 0.00 0.00 59 1017.1
20260831212837 82 237 0.0 3.0 0.00 0.00 0.00 60 1017.2
20260831212333 82 282 0.0 3.0 0.00 0.00 0.00 59 1017.1
20260831211832 82 90 0.0 3.0 0.00 0.00 0.00 61 1017.1
20260831211327 82 0 0.0 5.0 0.00 0.00 0.00 61 1017.2
20260831210826 82 212 2.0 4.0 0.00 0.00 0.00 61 1017.3
20260831210323 84 279 3.0 5.0 0.00 0.00 0.00 61 1017.3
20260831205818 82 243 3.0 3.0 0.00 0.00 0.00 61 1017.3
20260831205314 84 203 1.0 5.0 0.00 0.00 0.00 61 1016.8
20260831204813 81 83 1.0 4.0 0.00 0.00 0.00 63 1017.2
20260831204312 82 187 1.0 4.0 0.00 0.00 0.00 62 1017.2
20260831203812 83 187 1.0 3.0 0.00 0.00 0.00 62 1017.2
20260831203302 82 206 1.0 3.0 0.00 0.00 0.00 62 1017.5
20260831202759 81 234 1.0 3.0 0.00 0.00 0.00 64 1017.2
20260831202254 82 233 2.0 5.0 0.00 0.00 0.00 65 1017.5
20260831201748 82 190 0.0 3.0 0.00 0.00 0.00 63 1017.1
20260831201247 82 249 1.0 2.0 0.00 0.00 0.00 63 1017.5
20260831200743 82 209 1.0 5.0 0.00 0.00 0.00 65 1017.2
20260831200238 81 240 3.0 8.0 0.00 0.00 0.00 65 1017.2
20260831195734 83 252 3.0 6.0 0.00 0.00 0.00 64 1017.3
20260831195229 82 270 1.0 5.0 0.00 0.00 0.00 65 1017.4
20260831194723 81 200 0.0 6.0 0.00 0.00 0.00 65 1017.3
20260831194219 81 198 3.0 5.0 0.00 0.00 0.00 65 1017.3
20260831193713 83 180 0.0 4.0 0.00 0.00 0.00 63 1017.4
20260831193209 83 216 0.0 2.0 0.00 0.00 0.00 61 1017.3
20260831192704 80 270 0.0 3.0 0.00 0.00 0.00 61 1017.4
20260831192159 81 261 0.0 5.0 0.00 0.00 0.00 63 1017.6
20260831191655 79 228 0.0 2.0 0.00 0.00 0.00 63 1017.5
20260831191151 80 270 0.0 4.0 0.00 0.00 0.00 64 1017.7
20260831190645 81 165 0.0 4.0 0.00 0.00 0.00 64 1017.7
20260831190144 79 278 0.0 3.0 0.00 0.00 0.00 65 1017.6
20260831185640 80 15 2.0 4.0 0.00 0.00 0.00 66 1017.7
20260831185135 81 260 0.0 4.0 0.00 0.00 0.00 65 1017.6
20260831184629 80 20 0.0 2.0 0.00 0.00 0.00 64 1018.0
20260831184125 79 112 0.0 2.0 0.00 0.00 0.00 64 1017.6
20260831183619 80 261 0.0 2.0 0.00 0.00 0.00 63 1017.9
20260831183118 80 105 0.0 1.0 0.00 0.00 0.00 64 1017.8
20260831182617 77 270 0.0 3.0 0.00 0.00 0.00 66 1017.8
20260831182113 78 234 1.0 2.0 0.00 0.00 0.00 65 1017.8
20260831181608 80 97 0.0 1.0 0.00 0.00 0.00 64 1017.8
20260831181107 78 74 0.0 2.0 0.00 0.00 0.00 65 1018.0
20260831180602 77 240 2.0 2.0 0.00 0.00 0.00 65 1017.7
20260831180058 77 209 1.0 3.0 0.00 0.00 0.00 67 1017.8
20260831175547 77 270 0.0 2.0 0.00 0.00 0.00 65 1017.8
20260831175044 78 105 0.0 1.0 0.00 0.00 0.00 66 1017.8
20260831174538 78 106 0.0 2.0 0.00 0.00 0.00 66 1017.8
20260831174032 77 120 0.0 2.0 0.00 0.00 0.00 67 1017.8
20260831173530 77 96 0.0 3.0 0.00 0.00 0.00 69 1017.9
20260831173027 75 243 0.0 2.0 0.00 0.00 0.00 70 1018.0
20260831172522 75 282 0.0 3.0 0.00 0.00 0.00 72 1018.1
20260831172017 75 290 0.0 3.0 0.00 0.00 0.00 72 1017.9
20260831171513 75 164 0.0 2.0 0.00 0.00 0.00 70 1017.9
20260831171010 75 90 0.0 0.0 0.00 0.00 0.00 72 1017.9
20260831170505 75 106 0.0 2.0 0.00 0.00 0.00 73 1017.7
20260831170002 75 236 0.0 2.0 0.00 0.00 0.00 72 1017.8
20260831165457 75 99 0.0 2.0 0.00 0.00 0.00 73 1017.8
20260831164954 74 286 0.0 3.0 0.00 0.00 0.00 75 1017.8
20260831164450 74 255 2.0 3.0 0.00 0.00 0.00 77 1017.5
20260831163945 73 276 0.0 2.0 0.00 0.00 0.00 78 1017.7
20260831163440 75 281 2.0 2.0 0.00 0.00 0.00 78 1017.6
20260831162938 74 270 0.0 1.0 0.00 0.00 0.00 78 1017.5
20260831162435 75 243 0.0 1.0 0.00 0.00 0.00 78 1017.5
20260831161932 76 206 0.0 2.0 0.00 0.00 0.00 76 1017.7
20260831161424 76 259 2.0 2.0 0.00 0.00 0.00 75 1017.6
20260831160919 73 289 0.0 2.0 0.00 0.00 0.00 78 1017.7
20260831160413 74 286 0.0 1.0 0.00 0.00 0.00 80 1017.6
20260831155908 73 221 0.0 0.0 0.00 0.00 0.00 81 1017.6
20260831155403 75 209 0.0 1.0 0.00 0.00 0.00 81 1017.6
20260831154858 74 264 0.0 1.0 0.00 0.00 0.00 82 1017.6
20260831154355 73 249 0.0 0.0 0.00 0.00 0.00 84 1017.6
20260831153852 73 270 0.0 0.0 0.00 0.00 0.00 86 1017.7
20260831153349 72 261 0.0 0.0 0.00 0.00 0.00 86 1017.7
20260831152845 72 331 0.0 0.0 0.00 0.00 0.00 87 1017.6
20260831152340 72 270 0.0 1.0 0.00 0.00 0.00 88 1017.6
20260831151835 71 261 0.0 0.0 0.00 0.00 0.00 89 1017.6
20260831151334 71 234 0.0 1.0 0.00 0.00 0.00 90 1017.5
20260831150829 72 234 0.0 0.0 0.00 0.00 0.00 91 1017.4
20260831150325 71 255 0.0 1.0 0.00 0.00 0.00 92 1017.5
20260831145823 70 270 0.0 0.0 0.00 0.00 0.00 92 1017.3
20260831145320 70 255 0.0 1.0 0.00 0.00 0.00 94 1017.3
20260831144816 70 270 0.0 0.0 0.00 0.00 0.00 95 1017.3
20260831144312 70 279 0.0 0.0 0.00 0.00 0.00 95 1017.3
20260831143811 69 279 0.0 0.0 0.00 0.00 0.00 95 1017.3
20260831143306 69 279 0.0 0.0 0.00 0.00 0.00 95 1017.2
20260831142756 69 279 0.0 0.0 0.00 0.00 0.00 95 1017.0
20260831142252 69 279 0.0 0.0 0.00 0.00 0.00 95 1016.9
20260831141751 69 279 0.0 0.0 0.00 0.00 0.00 95 1017.1
20260831141246 69 279 0.0 0.0 0.00 0.00 0.00 95 1017.1
20260831140740 68 279 0.0 0.0 0.00 0.00 0.00 95 1017.1
20260831140235 68 279 0.0 0.0 0.00 0.00 0.00 95 1016.8
20260831135732 68 279 0.0 0.0 0.00 0.00 0.00 95 1016.7
20260831135228 68 279 0.0 0.0 0.00 0.00 0.00 95 1016.5
20260831134724 69 279 0.0 0.0 0.00 0.00 0.00 95 1016.6
20260831134221 68 279 0.0 0.0 0.00 0.00 0.00 94 1016.4
20260831133719 68 279 0.0 0.0 0.00 0.00 0.00 94 1016.4
20260831133214 68 279 0.0 0.0 0.00 0.00 0.00 94 1016.4
20260831132709 68 279 0.0 0.0 0.00 0.00 0.00 94 1016.5
20260831132209 68 279 0.0 0.0 0.00 0.00 0.00 94 1016.3
20260831131708 68 279 0.0 0.0 0.00 0.00 0.00 94 1016.2
20260831131205 68 279 0.0 0.0 0.00 0.00 0.00 94 1016.3
20260831130700 68 279 0.0 0.0 0.00 0.00 0.00 94 1016.3
20260831130155 68 279 0.0 0.0 0.00 0.00 0.00 94 1016.1
20260831125653 68 279 0.0 0.0 0.00 0.00 0.00 94 1016.3
20260831125149 69 279 0.0 0.0 0.00 0.00 0.00 94 1016.2
20260831124645 69 279 0.0 0.0 0.00 0.00 0.00 94 1016.3
20260831124142 69 279 0.0 0.0 0.00 0.00 0.00 94 1016.0
20260831123641 69 279 0.0 0.0 0.00 0.00 0.00 94 1016.1
20260831123140 69 279 0.0 0.0 0.00 0.00 0.00 94 1016.2
20260831122639 69 279 0.0 0.0 0.00 0.00 0.00 93 1016.0
20260831122131 69 279 0.0 0.0 0.00 0.00 0.00 93 1016.2
20260831121630 69 279 0.0 0.0 0.00 0.00 0.00 93 1016.1
20260831121126 69 270 0.0 0.0 0.00 0.00 0.00 93 1016.0
20260831120621 69 270 0.0 0.0 0.00 0.00 0.00 93 1016.2
20260831120116 70 270 0.0 0.0 0.00 0.00 0.00 93 1016.1
20260831115612 70 270 0.0 0.0 0.00 0.00 0.00 93 1016.0
20260831115107 70 270 0.0 0.0 0.00 0.00 0.00 93 1016.3
20260831114606 69 270 0.0 0.0 0.00 0.00 0.00 92 1016.1
20260831114101 70 270 0.0 0.0 0.00 0.00 0.00 92 1016.2
20260831113600 70 270 0.0 0.0 0.00 0.00 0.00 92 1016.1
20260831113056 69 270 0.0 0.0 0.00 0.00 0.00 92 1016.0
20260831112555 69 270 0.0 0.0 0.00 0.00 0.00 91 1016.0
20260831112050 69 270 0.0 0.0 0.00 0.00 0.00 91 1016.3
20260831111547 70 270 0.0 0.0 0.00 0.00 0.00 91 1016.2
20260831111042 70 270 0.0 0.0 0.00 0.00 0.00 91 1016.1
20260831110537 70 270 0.0 0.0 0.00 0.00 0.00 91 1016.2
20260831110032 70 270 0.0 0.0 0.00 0.00 0.00 91 1016.1
20260831105531 70 270 0.0 0.0 0.00 0.00 0.00 90 1016.1
20260831105026 70 270 0.0 0.0 0.00 0.00 0.00 90 1016.1
20260831104523 71 270 0.0 0.0 0.00 0.00 0.00 90 1016.2
20260831104018 71 270 0.0 0.0 0.00 0.00 0.00 89 1016.4
20260831103518 71 270 0.0 0.0 0.00 0.00 0.00 89 1016.4
20260831103015 71 270 0.0 0.0 0.00 0.00 0.00 88 1016.4
20260831102508 71 270 0.0 0.0 0.00 0.00 0.00 88 1016.5
20260831102003 71 270 0.0 0.0 0.00 0.00 0.00 87 1016.3
20260831101458 71 254 0.0 0.0 0.00 0.00 0.00 87 1016.3
20260831100954 71 270 0.0 0.0 0.00 0.00 0.00 86 1016.1
20260831100450 71 270 0.0 0.0 0.00 0.00 0.00 86 1016.2
20260831095945 71 270 0.0 0.0 0.00 0.00 0.00 85 1016.5
20260831095444 71 270 0.0 0.0 0.00 0.00 0.00 85 1016.1
20260831094939 71 270 0.0 0.0 0.00 0.00 0.00 85 1016.2
20260831094436 71 270 0.0 0.0 0.00 0.00 0.00 84 1016.4
20260831093931 71 270 0.0 0.0 0.00 0.00 0.00 84 1016.3
20260831093426 71 270 0.0 0.0 0.00 0.00 0.00 83 1016.4
20260831092923 71 270 0.0 0.0 0.00 0.00 0.00 83 1016.3
20260831092418 71 270 0.0 0.0 0.00 0.00 0.00 82 1016.1
20260831091913 71 270 0.0 0.0 0.00 0.00 0.00 82 1016.2
20260831091408 71 270 0.0 0.0 0.00 0.00 0.00 82 1016.2
20260831090903 71 270 0.0 0.0 0.00 0.00 0.00 81 1016.1
20260831090354 71 270 0.0 0.0 0.00 0.00 0.00 81 1016.0
20260831085850 70 270 0.0 0.0 0.00 0.00 0.00 80 1016.1
20260831085344 71 270 0.0 0.0 0.00 0.00 0.00 80 1016.2
20260831084844 70 270 0.0 0.0 0.00 0.00 0.00 80 1016.3
20260831084340 71 270 0.0 0.0 0.00 0.00 0.00 80 1016.1
20260831083837 71 270 0.0 0.0 0.00 0.00 0.00 80 1016.1
20260831083332 71 270 0.0 0.0 0.00 0.00 0.00 80 1016.2
20260831082830 71 270 0.0 0.0 0.00 0.00 0.00 80 1016.3
20260831082325 71 270 0.0 0.0 0.00 0.00 0.00 79 1016.2
20260831081821 71 270 0.0 0.0 0.00 0.00 0.00 79 1016.4
20260831081317 72 270 0.0 0.0 0.00 0.00 0.00 78 1016.2
20260831080812 72 270 0.0 0.0 0.00 0.00 0.00 79 1016.4
20260831080307 72 270 0.0 0.0 0.00 0.00 0.00 78 1016.3
20260831075803 72 270 0.0 0.0 0.00 0.00 0.00 78 1016.5
20260831075258 72 270 0.0 0.0 0.00 0.00 0.00 77 1016.2
20260831074758 73 270 0.0 0.0 0.00 0.00 0.00 77 1016.2
20260831074257 72 270 0.0 0.0 0.00 0.00 0.00 78 1016.5
20260831073754 72 270 0.0 0.0 0.00 0.00 0.00 77 1016.3
20260831073252 72 270 0.0 0.0 0.00 0.00 0.00 77 1016.5
20260831072747 72 270 0.0 0.0 0.00 0.00 0.00 77 1016.1
20260831072244 72 270 0.0 0.0 0.00 0.00 0.00 77 1016.1
20260831071743 72 270 0.0 0.0 0.00 0.00 0.00 76 1016.3
20260831071238 72 270 0.0 0.0 0.00 0.00 0.00 76 1016.2
20260831070733 73 270 0.0 0.0 0.00 0.00 0.00 76 1016.3
20260831070227 73 270 0.0 0.0 0.00 0.00 0.00 75 1016.1
20260831065726 73 270 0.0 1.0 0.00 0.00 0.00 74 1015.9
20260831065224 73 270 0.0 0.0 0.00 0.00 0.00 75 1016.1
20260831064719 73 270 0.0 0.0 0.00 0.00 0.00 74 1015.9
20260831064215 73 270 0.0 0.0 0.00 0.00 0.00 74 1016.1
20260831063711 73 270 0.0 0.0 0.00 0.00 0.00 73 1015.9
20260831063206 73 270 0.0 0.0 0.00 0.00 0.00 74 1016.0
20260831062705 74 331 0.0 1.0 0.00 0.00 0.00 74 1015.9
20260831062205 73 283 0.0 1.0 0.00 0.00 0.00 73 1016.1
20260831061703 74 270 0.0 0.0 0.00 0.00 0.00 72 1015.8
20260831061159 74 270 0.0 0.0 0.00 0.00 0.00 72 1016.2
20260831060655 73 279 0.0 0.0 0.00 0.00 0.00 73 1016.0
20260831060155 74 286 0.0 1.0 0.00 0.00 0.00 72 1015.9
20260831055654 74 291 0.0 1.0 0.00 0.00 0.00 72 1015.9
20260831055149 74 270 0.0 1.0 0.00 0.00 0.00 72 1016.1
20260831054649 74 270 0.0 1.0 0.00 0.00 0.00 72 1016.2
20260831054144 74 331 1.0 2.0 0.00 0.00 0.00 72 1016.1
20260831053638 74 279 0.0 2.0 0.00 0.00 0.00 72 1016.0
20260831053137 74 337 0.0 1.0 0.00 0.00 0.00 73 1016.1
20260831052636 74 254 0.0 2.0 0.00 0.00 0.00 74 1016.0
20260831052135 74 255 0.0 2.0 0.00 0.00 0.00 73 1016.2
20260831051629 74 262 0.0 0.0 0.00 0.00 0.00 73 1016.1
20260831051127 74 261 0.0 2.0 0.00 0.00 0.00 73 1016.1
20260831050622 75 261 0.0 2.0 0.00 0.00 0.00 72 1015.9
20260831050120 75 261 0.0 0.0 0.00 0.00 0.00 71 1016.1
20260831045620 75 261 0.0 1.0 0.00 0.00 0.00 71 1016.0
20260831045110 75 270 0.0 2.0 0.00 0.00 0.00 71 1015.8
20260831044605 75 246 0.0 1.0 0.00 0.00 0.00 70 1016.0
20260831044100 75 345 0.0 1.0 0.00 0.00 0.00 70 1015.8
20260831043555 75 255 0.0 2.0 0.00 0.00 0.00 70 1015.9
20260831043051 75 246 2.0 2.0 0.00 0.00 0.00 70 1016.0
20260831042550 75 0 0.0 2.0 0.00 0.00 0.00 70 1015.8
20260831042045 75 266 3.0 3.0 0.00 0.00 0.00 69 1015.6
20260831041540 75 278 0.0 2.0 0.00 0.00 0.00 69 1015.4
20260831041039 75 244 0.0 3.0 0.00 0.00 0.00 69 1015.4
20260831040534 75 340 0.0 1.0 0.00 0.00 0.00 69 1015.5
20260831040033 75 352 0.0 1.0 0.00 0.00 0.00 70 1015.5
20260831035525 75 328 0.0 2.0 0.00 0.00 0.00 69 1015.4
20260831035020 75 334 0.0 2.0 0.00 0.00 0.00 70 1015.4
20260831034509 76 337 0.0 2.0 0.00 0.00 0.00 69 1015.2
20260831034005 76 290 2.0 3.0 0.00 0.00 0.00 69 1015.3
20260831033501 76 342 2.0 3.0 0.00 0.00 0.00 68 1015.3
20260831032955 75 341 0.0 2.0 0.00 0.00 0.00 69 1014.8
20260831032450 76 221 2.0 2.0 0.00 0.00 0.00 69 1014.9
20260831031945 76 241 0.0 3.0 0.00 0.00 0.00 69 1015.0
20260831031445 76 292 0.0 4.0 0.00 0.00 0.00 69 1014.9
20260831030944 76 342 2.0 5.0 0.00 0.00 0.00 71 1014.7
20260831030443 76 346 0.0 5.0 0.00 0.00 0.00 71 1014.5
20260831025941 76 300 2.0 3.0 0.00 0.00 0.00 73 1014.4
20260831025441 76 286 0.0 3.0 0.00 0.00 0.00 74 1014.8
20260831024936 76 285 3.0 3.0 0.00 0.00 0.00 75 1014.4
20260831024436 77 340 0.0 3.0 0.00 0.00 0.00 75 1014.4
20260831023931 77 281 0.0 2.0 0.00 0.00 0.00 76 1014.3
20260831023429 77 270 0.0 3.0 0.00 0.00 0.00 76 1014.4
20260831022925 77 243 1.0 3.0 0.00 0.00 0.00 76 1014.4
20260831022423 77 324 5.0 5.0 0.00 0.00 0.00 76 1014.3
20260831021918 78 286 1.0 3.0 0.00 0.00 0.00 75 1014.2
20260831021417 78 285 0.0 4.0 0.00 0.00 0.00 75 1014.5
20260831020913 79 346 2.0 4.0 0.00 0.00 0.00 74 1014.3
20260831020408 79 300 2.0 5.0 0.00 0.00 0.00 73 1014.4
20260831015902 80 270 3.0 4.0 0.00 0.00 0.00 72 1014.2
20260831015358 80 220 2.0 4.0 0.00 0.00 0.00 72 1014.4
20260831014853 81 270 0.0 2.0 0.00 0.00 0.00 70 1014.0
20260831014347 82 0 0.0 4.0 0.00 0.00 0.00 69 1014.2
20260831013843 82 355 0.0 3.0 0.00 0.00 0.00 68 1014.2
20260831013338 84 251 2.0 4.0 0.00 0.00 0.00 65 1014.1
20260831012832 85 185 2.0 2.0 0.00 0.00 0.00 59 1014.2
20260831012328 85 157 0.0 3.0 0.00 0.00 0.00 59 1014.1
20260831011828 85 203 0.0 1.0 0.00 0.00 0.00 62 1014.2
20260831011323 85 251 0.0 2.0 0.00 0.00 0.00 60 1014.1
20260831010819 85 199 5.0 5.0 0.00 0.00 0.00 61 1014.1
20260831010318 85 98 0.0 4.0 0.00 0.00 0.00 61 1014.1
20260831005813 85 270 1.0 2.0 0.00 0.00 0.00 62 1014.1
20260831005309 84 264 0.0 3.0 0.00 0.00 0.00 64 1014.1
20260831004804 84 206 1.0 5.0 0.00 0.00 0.00 62 1014.2
20260831004301 86 196 0.0 3.0 0.00 0.00 0.00 62 1014.3
20260831003755 85 216 0.0 4.0 0.00 0.00 0.00 60 1014.2
20260831003251 86 206 0.0 3.0 0.00 0.00 0.00 60 1014.1
20260831002750 86 262 0.0 4.0 0.00 0.00 0.00 59 1014.4
20260831002245 86 246 0.0 3.0 0.00 0.00 0.00 59 1014.3
20260831001741 87 203 1.0 3.0 0.00 0.00 0.00 57 1014.1
20260831001236 85 192 0.0 4.0 0.00 0.00 0.00 60 1014.1
20260831000733 86 60 0.0 3.0 0.00 0.00 0.00 59 1014.2
20260831000228 87 212 2.0 2.0 0.00 0.00 0.00 59 1014.2
20260830235726 86 232 2.0 4.0 0.00 0.00 0.00 60 1014.2
20260830235221 87 109 2.0 4.0 0.00 0.00 0.00 59 1014.2
20260830234721 86 204 2.0 3.0 0.00 0.00 0.00 57 1014.0
20260830234217 87 163 0.0 5.0 0.00 0.00 0.00 56 1014.0
20260830233713 86 255 1.0 2.0 0.00 0.00 0.00 56 1013.9
20260830233208 86 247 0.0 2.0 0.00 0.00 0.00 57 1014.1
20260830232703 85 257 0.0 3.0 0.00 0.00 0.00 55 1014.3
20260830232159 86 213 2.0 5.0 0.00 0.00 0.00 55 1014.2
20260830231656 86 212 0.0 2.0 0.00 0.00 0.00 57 1014.5
20260830231155 86 210 2.0 5.0 0.00 0.00 0.00 57 1014.2
20260830230650 87 209 0.0 5.0 0.00 0.00 0.00 57 1014.2
20260830230145 86 257 0.0 3.0 0.00 0.00 0.00 58 1014.4